Total_Precipitation_Accumulation
0.36 0.32 0.31 0.33 0.35 0.34 0.31 0.27 0.24 0.23 0.21 0.19 0.16 0.15 0.15 0.15 0.13 0.12 0.11 0.10 0.08 0.08 0.09 0.11 0.13 0.14 0.15 0.17 0.18 0.19 0.18 0.16 0.13 0.12 0.11 0.10 0.09 0.08 0.08 0.09 0.11 0.12 0.13
0.45 0.40 0.36 0.33 0.34 0.36 0.37 0.35 0.32 0.31 0.28 0.25 0.21 0.18 0.16 0.17 0.17 0.15 0.13 0.12 0.10 0.08 0.08 0.10 0.15 0.20 0.23 0.25 0.26 0.27 0.25 0.20 0.17 0.15 0.12 0.11 0.09 0.08 0.08 0.08 0.09 0.11 0.12
0.51 0.49 0.46 0.40 0.36 0.38 0.41 0.42 0.42 0.42 0.37 0.32 0.27 0.25 0.23 0.23 0.22 0.22 0.20 0.17 0.14 0.11 0.10 0.10 0.15 0.23 0.28 0.31 0.35 0.38 0.37 0.29 0.24 0.19 0.17 0.15 0.13 0.12 0.10 0.09 0.09 0.09 0.10
0.59 0.58 0.53 0.43 0.37 0.43 0.45 0.43 0.41 0.41 0.36 0.31 0.26 0.25 0.25 0.25 0.25 0.26 0.29 0.29 0.26 0.20 0.15 0.11 0.12 0.17 0.25 0.33 0.40 0.48 0.52 0.45 0.36 0.30 0.26 0.23 0.20 0.17 0.14 0.13 0.12 0.10 0.10
0.65 0.68 0.63 0.57 0.53 0.47 0.46 0.46 0.41 0.39 0.38 0.36 0.33 0.28 0.25 0.23 0.23 0.24 0.25 0.27 0.29 0.27 0.20 0.15 0.14 0.15 0.19 0.26 0.37 0.50 0.60 0.57 0.48 0.40 0.36 0.33 0.29 0.24 0.20 0.19 0.16 0.15 0.14
0.74 0.73 0.74 0.73 0.73 0.67 0.55 0.51 0.48 0.45 0.42 0.44 0.47 0.42 0.36 0.32 0.28 0.26 0.26 0.25 0.24 0.25 0.23 0.19 0.17 0.15 0.15 0.19 0.29 0.42 0.53 0.62 0.62 0.57 0.50 0.44 0.39 0.35 0.32 0.29 0.26 0.24 0.24
0.95 0.91 0.84 0.89 0.91 0.84 0.75 0.69 0.67 0.63 0.58 0.58 0.59 0.51 0.44 0.42 0.39 0.34 0.33 0.33 0.31 0.30 0.28 0.25 0.22 0.19 0.16 0.16 0.20 0.29 0.39 0.53 0.63 0.67 0.68 0.65 0.57 0.50 0.46 0.43 0.41 0.38 0.36
1.09 1.05 1.02 1.00 1.00 1.01 1.00 0.96 0.92 0.87 0.81 0.81 0.81 0.78 0.61 0.46 0.37 0.33 0.34 0.35 0.35 0.35 0.33 0.30 0.26 0.24 0.21 0.19 0.17 0.19 0.25 0.36 0.52 0.65 0.71 0.73 0.72 0.68 0.64 0.64 0.63 0.60 0.54
1.24 1.15 1.13 1.16 1.12 1.08 1.05 1.05 1.04 1.02 0.96 0.93 0.93 0.98 0.84 0.58 0.40 0.31 0.28 0.29 0.33 0.35 0.36 0.38 0.39 0.36 0.30 0.27 0.24 0.22 0.21 0.24 0.36 0.54 0.71 0.78 0.79 0.81 0.83 0.87 0.90 0.90 0.81
1.43 1.36 1.29 1.28 1.26 1.21 1.11 1.10 1.09 1.05 1.03 0.98 0.95 0.88 0.81 0.66 0.61 0.46 0.31 0.29 0.32 0.33 0.36 0.40 0.43 0.45 0.45 0.43 0.40 0.37 0.32 0.27 0.31 0.44 0.63 0.82 0.93 0.99 1.02 1.03 1.06 1.09 1.05
1.52 1.46 1.41 1.39 1.32 1.26 1.22 1.23 1.20 1.18 1.11 1.06 1.01 0.95 0.93 0.80 0.67 0.64 0.48 0.34 0.35 0.36 0.38 0.42 0.45 0.47 0.48 0.47 0.44 0.44 0.45 0.41 0.42 0.50 0.65 0.84 1.00 1.16 1.25 1.27 1.25 1.26 1.25
1.62 1.52 1.44 1.39 1.33 1.30 1.28 1.28 1.31 1.28 1.23 1.18 1.13 1.07 1.07 1.01 0.86 0.81 0.72 0.51 0.43 0.39 0.38 0.40 0.42 0.44 0.47 0.48 0.47 0.51 0.49 0.49 0.52 0.61 0.76 0.90 1.01 1.13 1.29 1.41 1.43 1.38 1.34
1.43 1.41 1.42 1.39 1.35 1.29 1.28 1.30 1.32 1.30 1.25 1.21 1.15 1.11 1.11 1.06 0.98 0.96 0.91 0.72 0.58 0.46 0.43 0.43 0.42 0.43 0.45 0.47 0.49 0.58 0.56 0.58 0.61 0.68 0.81 0.94 0.99 1.04 1.16 1.32 1.48 1.56 1.60
1.36 1.39 1.39 1.40 1.42 1.41 1.36 1.35 1.35 1.32 1.30 1.22 1.11 1.05 1.02 0.97 0.97 0.99 0.98 0.97 0.89 0.69 0.56 0.49 0.44 0.44 0.47 0.52 0.60 0.70 0.65 0.76 0.77 0.81 0.90 0.99 1.02 1.01 1.03 1.10 1.23 1.37 1.46
1.23 1.27 1.28 1.30 1.32 1.34 1.33 1.33 1.32 1.28 1.28 1.25 1.18 1.10 0.99 0.88 0.87 0.89 0.93 1.00 1.10 1.00 0.76 0.58 0.56 0.58 0.62 0.67 0.77 0.76 0.71 0.86 0.91 0.92 0.96 1.00 1.01 0.97 0.95 0.96 1.00 1.06 1.12
1.06 1.11 1.13 1.14 1.16 1.18 1.21 1.24 1.22 1.18 1.16 1.13 1.12 1.12 1.07 0.97 0.94 0.95 0.99 1.05 1.14 1.19 1.03 0.72 0.63 0.65 0.75 0.83 0.93 0.86 0.80 0.91 0.88 0.87 0.89 0.88 0.85 0.82 0.81 0.81 0.84 0.89 0.93
0.94 0.95 0.97 0.99 0.99 1.02 1.06 1.10 1.06 1.05 1.07 1.06 1.05 1.08 1.10 1.07 1.08 1.06 1.10 1.16 1.22 1.29 1.29 1.00 0.81 0.77 0.81 0.83 0.84 0.80 0.75 0.76 0.73 0.81 0.77 0.74 0.70 0.68 0.68 0.70 0.72 0.75 0.78
0.85 0.86 0.87 0.89 0.86 0.85 0.89 0.93 0.95 0.95 0.95 0.96 0.99 1.05 1.08 1.09 1.13 1.14 1.18 1.21 1.24 1.24 1.24 1.12 0.91 0.81 0.76 0.72 0.71 0.69 0.66 0.63 0.60 0.68 0.67 0.64 0.62 0.61 0.61 0.63 0.64 0.66 0.70
0.75 0.77 0.78 0.80 0.82 0.80 0.81 0.82 0.83 0.84 0.85 0.85 0.86 0.90 0.91 0.97 1.03 1.04 1.08 1.13 1.14 1.14 1.13 1.05 0.88 0.73 0.66 0.64 0.67 0.66 0.60 0.56 0.52 0.55 0.57 0.54 0.53 0.53 0.53 0.55 0.57 0.59 0.56
0.57 0.62 0.67 0.70 0.70 0.73 0.77 0.80 0.82 0.81 0.80 0.79 0.79 0.81 0.83 0.88 0.93 0.98 1.03 1.05 1.06 1.08 1.08 1.06 0.97 0.82 0.69 0.62 0.64 0.64 0.60 0.53 0.48 0.44 0.52 0.51 0.49 0.47 0.45 0.43 0.41 0.41 0.42
0.42 0.45 0.51 0.59 0.64 0.66 0.70 0.74 0.77 0.80 0.80 0.80 0.82 0.87 0.91 1.01 1.02 0.99 0.96 0.94 0.94 0.98 1.01 1.01 0.92 0.80 0.69 0.63 0.62 0.57 0.56 0.54 0.52 0.47 0.47 0.45 0.43 0.42 0.40 0.41 0.39 0.36 0.37
0.34 0.37 0.43 0.47 0.54 0.60 0.76 0.75 0.71 0.72 0.80 0.84 0.86 0.86 0.89 0.99 0.97 0.96 0.90 0.85 0.87 0.93 0.95 0.89 0.78 0.65 0.52 0.45 0.45 0.52 0.57 0.63 0.62 0.45 0.44 0.44 0.41 0.42 0.38 0.36 0.40 0.38 0.37
0.36 0.39 0.41 0.45 0.51 0.65 0.80 0.77 0.81 0.74 0.77 0.82 0.84 0.82 0.78 0.75 0.77 0.69 0.75 0.79 0.80 0.79 0.75 0.68 0.63 0.52 0.44 0.41 0.49 0.60 0.61 0.59 0.49 0.37 0.43 0.51 0.46 0.43 0.36 0.36 0.41 0.38 0.38
0.50 0.55 0.59 0.63 0.66 0.75 0.81 0.73 0.70 0.65 0.68 0.71 0.69 0.67 0.63 0.58 0.56 0.56 0.59 0.65 0.58 0.54 0.54 0.49 0.46 0.43 0.43 0.45 0.54 0.64 0.67 0.69 0.60 0.52 0.52 0.58 0.49 0.43 0.37 0.37 0.42 0.40 0.41
0.78 0.76 0.73 0.69 0.66 0.66 0.67 0.61 0.57 0.52 0.53 0.53 0.50 0.49 0.49 0.47 0.53 0.60 0.55 0.51 0.47 0.46 0.50 0.52 0.53 0.52 0.56 0.59 0.61 0.67 0.75 0.83 0.75 0.58 0.49 0.47 0.43 0.40 0.41 0.41 0.44 0.48 0.45
0.70 0.68 0.67 0.64 0.58 0.52 0.47 0.42 0.40 0.37 0.37 0.35 0.33 0.34 0.39 0.41 0.50 0.56 0.48 0.46 0.43 0.38 0.39 0.43 0.45 0.44 0.42 0.46 0.56 0.55 0.63 0.84 0.75 0.56 0.36 0.40 0.43 0.50 0.63 0.46 0.40 0.43 0.48